Location: Killam
(52.7910°N, 111.8608°W)
Time: 05:44:12
(UTC+00:00)

CAS-4A - Visible Passes

Search period start: 05 December 2023 00:00
Search period end: 15 December 2023 00:00
Orbit: 493 x 508 km, 43.0° (Epoch: 04 December)

Date Brightness Start Highest point End Pass type
(mag) Time Alt. Az. Time Alt. Az. Time Alt. Az.
05 Dec ? 00:44:39 10° SW 00:47:28 19° S 00:50:16 10° SE visible
05 Dec ? 02:24:02 10° SW 02:25:34 13° SSW 02:25:34 13° SSW visible
06 Dec ? 00:22:44 10° SW 00:25:33 19° S 00:28:22 10° SE visible
06 Dec ? 02:02:12 10° SW 02:04:01 13° SSW 02:04:55 12° S visible
07 Dec ? 00:00:48 10° SW 00:03:37 19° S 00:06:26 10° SE visible
07 Dec ? 01:40:22 10° SW 01:42:04 13° SSW 01:43:45 10° S visible
08 Dec ? 01:18:31 10° SW 01:20:06 12° SSW 01:21:41 10° S visible
09 Dec ? 00:56:39 10° SW 00:58:07 12° SSW 00:59:34 10° S visible
10 Dec ? 00:34:48 10° SW 00:36:06 11° SSW 00:37:25 10° S visible
11 Dec ? 00:12:56 10° SW 00:14:05 11° SSW 00:15:12 10° S visible
11 Dec ? 23:51:06 10° SW 23:52:01 11° SSW 23:52:56 10° S visible
